Observations for Trim Market St
| Time | AQI | Temp °C | Hum % | Pres Pa | CO μg/m³ | H₂S μg/m³ | NO μg/m³ | NO₂ μg/m³ | O₃ μg/m³ | SO₂ μg/m³ | PM1 μg/m³ | PM2.5 μg/m³ | PM10 μg/m³ |
|---|---|---|---|---|---|---|---|---|---|---|---|---|---|
| Sunday 12 July 2026 | |||||||||||||
| 22:51 | 1 | 21.2 | 63 | 57,586 | 0 | 0 | 0 | 6.05 | 25.27 | 0 | 1.43 | 3.87 | 6.2 |
| 22:49 | 1 | 21.2 | 63 | 57,595 | 0 | 0 | 0 | 10.06 | 23.59 | 0 | 1.43 | 2.88 | 5.53 |
| 22:47 | 1 | 21.3 | 63 | 57,609 | 0 | 0 | 0 | 6.24 | 24.52 | 0 | 1.43 | 2.88 | 5.53 |
| 22:46 | 1 | 21.3 | 63 | 57,613 | 0 | 0 | 0 | 7.74 | 23.81 | 0 | 1.43 | 3.38 | 5.53 |
| 22:45 | 1 | 21.3 | 63 | 57,618 | 0 | 0 | 0 | 6.85 | 22.34 | 0 | 1.43 | 3.88 | 6.19 |
| 22:43 | 1 | 21.4 | 63 | 57,622 | 0 | 0 | 0 | 7.24 | 23.14 | 0 | 1.43 | 2.89 | 5.52 |
| 22:42 | 1 | 21.4 | 63 | 57,625 | 0 | 0 | 0 | 6.64 | 26.72 | 0 | 2.85 | 4.88 | 7.53 |
| 22:38 | 1 | 21.4 | 63 | 57,636 | 0 | 0 | 0 | 10.16 | 23.26 | 0 | 1.43 | 3.4 | 4.85 |
| 22:36 | 1 | 21.5 | 63 | 57,645 | 0 | 0 | 0 | 7.43 | 24 | 0 | 2.14 | 3.89 | 5.52 |
| 22:34 | 1 | 21.5 | 62 | 57,658 | 0 | 0 | 0 | 7.96 | 23.25 | 0 | 0.71 | 3.9 | 8.2 |
| 22:29 | 1 | 21.7 | 62 | 57,692 | 0 | 0 | 0 | 9.43 | 22.51 | 0 | 1.43 | 3.91 | 6.86 |
| 22:24 | 1 | 21.8 | 62 | 57,717 | 0 | 0 | 0 | 8.64 | 24.62 | 0 | 2.85 | 4.43 | 6.18 |
| 22:23 | 1 | 21.8 | 62 | 57,725 | 0 | 0 | 0 | 9.76 | 21.03 | 0 | 1.43 | 3.44 | 4.83 |
| 22:22 | 1 | 21.9 | 62 | 57,736 | 0 | 0 | 0 | 8.84 | 22.81 | 0 | 1.43 | 2.95 | 4.15 |
| 22:21 | 1 | 21.9 | 62 | 57,743 | 0 | 0 | 0 | 10.05 | 20.9 | 0 | 1.43 | 3.95 | 5.5 |
| 22:20 | 1 | 21.9 | 62 | 57,752 | 0 | 0 | 0 | 8.46 | 25.29 | 0 | 0.71 | 2.96 | 4.14 |
| 22:19 | 1 | 21.9 | 61 | 57,761 | 0 | 0 | 0 | 8.27 | 24.18 | 0 | 0.71 | 2.96 | 4.14 |
| 22:18 | 1 | 22 | 61 | 57,768 | 0 | 0 | 0 | 9.36 | 27.68 | 0 | 0.71 | 2.97 | 4.81 |
| 22:17 | 1 | 22 | 61 | 57,776 | 0 | 0 | 0 | 9.57 | 22.83 | 0 | 1.43 | 3.47 | 7.53 |
| 22:16 | 1 | 22 | 61 | 57,785 | 0 | 0 | 0 | 8.68 | 25.75 | 0 | 1.43 | 3.47 | 4.81 |